Harrison, AR

10:06 PM CST on December 04, 2016 (GMT -0600)
Boone County

Weather History for KHRO - February, 2014

Change the Weather History Date:

Tuesday, February 25, 2014

  Actual Average Record
Temperature  
Mean Temperature 37 °F 43 °F  
Max Temperature 47 °F 53 °F 83 °F (1917)
Min Temperature 26 °F 33 °F 9 °F (1967)
Degree Days  
Heating Degree Days 28 22  
Month to date heating degree days 753 622  
Since 1 July heating degree days 3436 3108  
Cooling Degree Days 0 0  
Month to date cooling degree days 0 0  
Year to date cooling degree days 0 0  
Moisture  
Dew Point 17 °F    
Average Humidity 47    
Maximum Humidity 63    
Minimum Humidity 31    
Precipitation  
Precipitation 0.00 in 0.11 in 1.05 in (1933)
Month to date precipitation 0.90 2.34  
Year to date precipitation 1.93 4.90  
Snow  
Snow 0.00 in 0.10 in 5.00 in (1960)
Month to date snowfall 5.8 2.9  
Since 1 July snowfall 15.8 8.9  
Snow Depth 0.00 in    
Sea Level Pressure  
Sea Level Pressure 30.19 in    
Wind  
Wind Speed 7 mph (NNE)    
Max Wind Speed 16 mph    
Max Gust Speed 22 mph    
Visibility 10 miles    
Events      
T = Trace of Precipitation, MM = Missing Value Source: NWS Daily Summary

Daily Weather History Graph

Daily Weather History Graph

Search for Another Location

Airport or City:

Trip Planner

Search our weather history database for the weather conditions in past years. The results will help you decide how hot, cold, wet, or windy it might be!

Date:

Astronomy

Feb. 25, 2014 Rise Set
Actual Time 6:48 AM CST 6:03 PM CST
Civil Twilight 6:22 AM CST 6:29 PM CST
Nautical Twilight 5:52 AM CST 6:59 PM CST
Astronomical Twilight 5:22 AM CST 7:29 PM CST
Moon 3:38 AM CST (2/25) 2:14 PM CST (2/25)
Length of Visible Light 12h 07m
Length of Day
11h 15m
Waning Crescent, 18% of the Moon is Illuminated
Feb 25
Waning Crescent
Mar 1
New
Mar 8
First Quarter
Mar 16
Full
Mar 23
Last Quarter

Hourly Weather History & Observations

Time (CST) Temp. Windchill Dew Point Humidity Pressure Visibility Wind Dir Wind Speed Gust Speed Precip Events Conditions
12:53 AM 37.9 °F 34.4 °F 18.0 °F 45% 30.17 in 10.0 mi ESE 4.6 mph - N/A   Overcast
1:53 AM 37.9 °F - 19.0 °F 47% 30.17 in 10.0 mi Calm Calm - N/A   Overcast
2:53 AM 37.0 °F - 19.0 °F 48% 30.16 in 10.0 mi Calm Calm - N/A   Overcast
3:53 AM 37.0 °F - 19.9 °F 50% 30.15 in 10.0 mi Calm Calm - N/A   Overcast
4:53 AM 35.1 °F - 19.9 °F 54% 30.16 in 10.0 mi Calm Calm - N/A   Overcast
5:53 AM 33.1 °F - 19.0 °F 56% 30.18 in 10.0 mi Calm Calm - N/A   Clear
6:53 AM 30.9 °F - 19.0 °F 61% 30.17 in 10.0 mi Calm Calm - N/A   Clear
7:53 AM 34.0 °F 31.0 °F 21.0 °F 59% 30.19 in 10.0 mi NNW 3.5 mph - N/A   Clear
8:53 AM 37.9 °F 32.1 °F 19.0 °F 47% 30.21 in 10.0 mi NNE 8.1 mph - N/A   Clear
9:53 AM 39.9 °F 33.9 °F 17.1 °F 40% 30.22 in 10.0 mi NNE 9.2 mph - N/A   Clear
10:53 AM 42.1 °F 37.1 °F 15.1 °F 34% 30.21 in 10.0 mi NNE 8.1 mph - N/A   Clear
11:53 AM 43.0 °F 38.2 °F 15.1 °F 32% 30.20 in 10.0 mi North 8.1 mph - N/A   Clear
12:53 PM 45.0 °F 40.1 °F 16.0 °F 31% 30.18 in 10.0 mi NE 9.2 mph - N/A   Clear
1:53 PM 44.1 °F 38.1 °F 17.1 °F 34% 30.17 in 10.0 mi NE 11.5 mph 17.3 mph N/A   Mostly Cloudy
2:53 PM 42.1 °F 35.2 °F 16.0 °F 35% 30.16 in 10.0 mi NNE 12.7 mph 17.3 mph N/A   Overcast
3:53 PM 41.0 °F 34.7 °F 17.1 °F 38% 30.15 in 10.0 mi NNE 10.4 mph - N/A   Overcast
4:53 PM 37.9 °F 32.1 °F 18.0 °F 45% 30.16 in 10.0 mi North 8.1 mph - N/A   Overcast
5:53 PM 36.0 °F 28.5 °F 18.0 °F 48% 30.17 in 10.0 mi North 10.4 mph - N/A   Overcast
6:53 PM 35.1 °F 27.9 °F 18.0 °F 50% 30.20 in 10.0 mi North 9.2 mph - N/A   Overcast
7:53 PM 34.0 °F 26.0 °F 17.1 °F 50% 30.20 in 10.0 mi NNE 10.4 mph - N/A   Overcast
8:53 PM 32.0 °F 23.6 °F 16.0 °F 52% 30.21 in 10.0 mi NNE 10.4 mph - N/A   Overcast
9:53 PM 30.9 °F 21.2 °F 15.1 °F 52% 30.24 in 10.0 mi North 12.7 mph 19.6 mph N/A   Overcast
10:53 PM 28.9 °F 18.2 °F 14.0 °F 54% 30.24 in 10.0 mi North 13.8 mph 18.4 mph N/A   Overcast
11:53 PM 26.1 °F 14.0 °F 12.9 °F 58% 30.26 in 10.0 mi NNW 15.0 mph 20.7 mph N/A   Overcast